STARLINK-4588, 53641

Orbit data source: Space-Track

STARLINK-4588, 53641 is a payload satellite owned by SpaceX/Seattle (US) in LEO that was launched on Sun, 28 Aug 2022 UTC via an FALCON 9 launch vehicle from the Air Force Eastern Test Range (AFETR). Payload-class satellites include a variety of spacecraft equipped with specific instruments for various scientific and technological missions. These include communications satellites like Starlink; space stations such as the ISS; scientific satellites like the Hubble; Earth observation satellites from companies like Planet Labs, Umbra, and HawkEye 360; GPS; miniature CubeSats for education and research; and military/defense satellites.

Loading next visibility...
Identifier
53641, 2022-104BF
Orbit
LEO
Country
Flag of USUS
Related business
Manufacturer
SpaceX/Seattle
Mission
Operational Commercial Communications
Bus & Motor
STARLINK, Unknown motor
Mass
300 kg wet, ~290 kg dry
Launch date (UTC)
2022-08-28 (3 years ago)
Launch vehicle
FALCON 9
Launch site
Air Force Eastern Test Range (AFETR)
Object type
Payload
Rocket body
Debris
Shape & HBR
Box + 1 Pan, 10.1 m
Radar Cross Section
13.562 m², Large (>1 m²)

Expand to show TLE details & history
Last TLE update: 7 hours ago

TLE from 7 hours ago
0 STARLINK-4588
1 53641U 22104BF  25343.18243264  .00001119  00000-0  88356-4 0  9991
2 53641  53.2195 270.2867 0001454  88.4087 271.7072 15.08844821182566
Epoch: 2025-12-09T04:22Z
TLE epoch observation values (Epoch: 2025-12-09T04:22:42.180Z)
Latitude
0.00002°
Longitude
126.44018°
Altitude
540.597 km
Speed
7.593 km/s
True Right ascension
18h 01m 08s
True Declination
0° 00' 00"
Sunlit
Object was in daylight at epoch
Visualization orbit readout
Latitude
Unknown
Longitude
Unknown
Altitude
Unknown
Speed
Unknown
Apparent Right ascension
Unknown
Apparent Declination
Unknown
Sunlit
N/A
Visualization observer readout
Local Sidereal Time
09:50:05
Azimuth
Unknown
Elevation
Unknown
Doppler factor
Unknown
Orbital elements
Apogee altitude
540.979 km
Perigee altitude
538.967 km
Semi-major axis
6,918.11 km
Eccentricity
0.00015
Inclination
53.2195°
RAAN
270.2867°
Arg. of periapsis
88.4087°
True anomaly
271.69055°
Mean anomaly
271.7072°
Eccentric anomaly
271.69887°
Mean motion
3.77192 °/min
Orbital period
95.44 mins
BSTAR
0.000088356
Loading maneuver chart data...
Computing Atmospheric mass density...
Loading historical data...
Loading historical data...
Loading historical data...
Loading historical data...
Loading historical data...
Loading historical data...
Loading historical data...

Documentation

Showing up to 5 results
|